User: anonymous   Login
Location: Caltech
(34.1382°N, 118.1253°W)
Time: 23:54:06
(UTC-07:00)
Language:

ALOS - Orbit

View from above orbital plane
View from above orbital plane
View from above satellite
View from above satellite

Ground track
Ground track

The orbit data is extracted from the following two-line orbital elements,

1 28931U 06002A   14304.80047188  .00000956  00000-0  20220-3 0   911
2 28931 097.9670 357.9893 0002253 106.1477 029.2124 14.61407911467275
Epoch (UTC): 31 October 2014 19:12:40
Eccentricity: 0.0002253
inclination: 97.9670°
perigee height: 687 km
apogee height: 690 km
right ascension of ascending node: 357.9893°
argument of perigee: 106.1477°
revolutions per day: 14.61407911
mean anomaly at epoch: 29.2124°
orbit number at epoch: 46727

The dashed part of the orbit path shows where the satellite is in the earth's shadow,  

DLR